Tracking 23582 objects as of 31-Jul-2021
HD Live streaming from Space Station
objects crossing your sky now

NINGXIA-1 9

Track NINGXIA-1 9 now!
10-day predictions


NORAD ID: 49021
Int'l Code: 2021-064D
Perigee: 864.0 km
Apogee: 876.5 km
Inclination: 45.0 °
Period: 102.2 minutes
Semi major axis: 7241 km
RCS: Unknown
Launch date: July 9, 2021
Source: People's Republic of China (PRC)
Launch site: Taiyaun Space Center, China (TSC)
aabbcc
Your satellite tracking list
Your tracking list is empty




NASA's NSSDC Master Catalog

Two Line Element Set (TLE):
1 49021U 21064D   21212.10292850 -.00000287  00000-0 -89096-4 0  9999
2 49021  45.0058 354.1671 0008634   3.3401 356.7502 14.08897200  3043
Source of the keplerian elements: AFSPC